Location: Wien
(48.2082°N, 16.3738°E)
Time: 07:45:22
(UTC+02:00)

DOVE 4 - Pass Details

Date: 01 April 2019
Orbit: 587 x 804 km, 97.7° (Epoch: 24 April)

Event Time Altitude Azimuth Distance (km) Brightness Sun altitude
Rises 05:07:25 0° 4° (N) 2,880 ? -14.6°
Reaches altitude 10° 05:09:49 10° 354° (N) 1,951 ? -14.3°
Maximum altitude 05:13:27 29° 294° (WNW) 1,097 ? -13.7°
Enters shadow 05:15:09 21° 254° (WSW) 1,326 ? -13.4°
